Akron, CO

12:12 PM MST on December 15, 2017 (GMT -0700)
Akron-Washington County

Weather History for KAKO - October, 2011

Change the Weather History Date:

Monday, October 17, 2011

  Actual Average Record
Temperature  
Mean Temperature 38 °F 50 °F  
Max Temperature 46 °F 63 °F 84 °F (1991)
Min Temperature 29 °F 36 °F 16 °F (1948)
Degree Days  
Heating Degree Days 27    
Month to date heating degree days 159  
Cooling Degree Days 0    
Month to date cooling degree days 17  
Moisture  
Dew Point 35 °F    
Average Humidity 77    
Maximum Humidity 96    
Minimum Humidity 58    
Precipitation  
Precipitation 0.30 in 0.04 in 0.39 in (1993)
Month to date precipitation 0.62 0.70  
Year to date precipitation 15.35  
Sea Level Pressure  
Sea Level Pressure 30.09 in    
Wind  
Wind Speed 17 mph (NW)    
Max Wind Speed 35 mph    
Max Gust Speed 43 mph    
Visibility 9 miles    
Events Rain    
T = Trace of Precipitation, MM = Missing Value Source: NWS Daily Summary

Daily Weather History Graph

Daily Weather History Graph

Search for Another Location

Airport or City:

Trip Planner

Search our weather history database for the weather conditions in past years. The results will help you decide how hot, cold, wet, or windy it might be!

Date:

Astronomy

Oct. 17, 2011 Rise Set
Actual Time 7:05 AM MDT 6:10 PM MDT
Civil Twilight 6:37 AM MDT 6:37 PM MDT
Nautical Twilight 6:06 AM MDT 7:09 PM MDT
Astronomical Twilight 5:34 AM MDT 7:40 PM MDT
Moon 9:53 PM MDT (10/17) 12:13 PM MDT (10/17)
Length of Visible Light 11h 59m
Length of Day
11h 05m
Waning Gibbous, 73% of the Moon is Illuminated
Oct 17
Waning Gibbous
Oct 19
Last Quarter
Oct 26
New
Nov 2
First Quarter
Nov 10
Full

Hourly Weather History & Observations

Time (MDT) Temp. Windchill Dew Point Humidity Pressure Visibility Wind Dir Wind Speed Gust Speed Precip Events Conditions
12:53 AM 44.1 °F 36.5 °F 30.9 °F 60% 29.95 in 10.0 mi SSE 17.3 mph - N/A   Scattered Clouds
1:53 AM 43.0 °F 36.8 °F 32.0 °F 65% 29.93 in 10.0 mi SSE 11.5 mph - N/A   Clear
2:53 AM 44.1 °F 38.1 °F 32.0 °F 63% 29.91 in 10.0 mi South 11.5 mph - N/A   Partly Cloudy
4:53 AM 44.1 °F 37.4 °F 30.9 °F 60% 29.87 in 10.0 mi South 13.8 mph - N/A   Scattered Clouds
5:53 AM 42.1 °F 34.5 °F 30.9 °F 65% 29.88 in 10.0 mi South 15.0 mph - N/A   Partly Cloudy
6:53 AM 43.0 °F 36.8 °F 30.9 °F 62% 29.88 in 10.0 mi South 11.5 mph - N/A   Mostly Cloudy
7:53 AM 43.0 °F 38.8 °F 34.0 °F 71% 29.90 in 10.0 mi SSW 6.9 mph - 0.00 in Rain Light Rain
8:53 AM 42.1 °F 34.9 °F 37.9 °F 85% 29.94 in 5.0 mi WNW 13.8 mph - 0.04 in Rain Rain
9:53 AM 43.0 °F 35.7 °F 41.0 °F 93% 29.99 in 6.0 mi WNW 15.0 mph - 0.17 in Rain Light Rain
10:53 AM 44.1 °F 35.7 °F 42.1 °F 93% 30.03 in 8.0 mi NW 20.7 mph - 0.03 in Rain Light Rain
11:03 AM 44.6 °F 36.1 °F 41.0 °F 87% 30.06 in 10.0 mi NW 21.9 mph 28.8 mph 0.01 in Rain Light Rain
11:33 AM 42.8 °F 32.9 °F 39.2 °F 87% 30.08 in 9.0 mi NNW 26.5 mph 35.7 mph 0.02 in Rain Light Rain
12:02 PM 39.2 °F 27.0 °F 37.4 °F 93% 30.09 in 8.0 mi NNW 32.2 mph 38.0 mph 0.01 in Rain Light Rain
12:06 PM 39.2 °F 27.0 °F 37.4 °F 93% 30.09 in 8.0 mi NNW 32.2 mph 38.0 mph 0.01 in Rain Light Rain
12:16 PM 39.2 °F 27.2 °F 37.4 °F 93% 30.09 in 10.0 mi NNW 31.1 mph 42.6 mph 0.02 in Rain Light Rain
12:53 PM 39.9 °F 28.6 °F 37.0 °F 89% 30.10 in 10.0 mi NNW 28.8 mph 40.3 mph 0.02 in   Overcast
1:53 PM 41.0 °F 30.5 °F 37.9 °F 89% 30.13 in 10.0 mi NNW 26.5 mph 34.5 mph N/A   Overcast
2:53 PM 43.0 °F 32.5 °F 37.0 °F 80% 30.15 in 10.0 mi North 29.9 mph 39.1 mph N/A   Overcast
3:53 PM 42.1 °F 31.3 °F 36.0 °F 79% 30.21 in 10.0 mi North 29.9 mph 35.7 mph N/A   Overcast
4:53 PM 43.0 °F 34.2 °F 35.1 °F 74% 30.22 in 10.0 mi North 20.7 mph 29.9 mph N/A   Overcast
5:53 PM 41.0 °F 31.6 °F 33.1 °F 73% 30.25 in 10.0 mi North 20.7 mph 27.6 mph N/A   Overcast
6:24 PM 39.2 °F 31.2 °F 33.8 °F 81% 30.24 in 10.0 mi North 13.8 mph - N/A   Scattered Clouds
7:53 PM 34.0 °F 28.0 °F 30.0 °F 85% 30.27 in 10.0 mi NNE 6.9 mph - N/A   Clear
8:53 PM 30.0 °F 22.4 °F 28.9 °F 96% 30.28 in 10.0 mi North 8.1 mph - N/A   Clear
9:53 PM 33.1 °F 24.4 °F 30.9 °F 92% 30.27 in 10.0 mi West 11.5 mph - N/A   Clear
10:53 PM 33.1 °F 23.9 °F 32.0 °F 96% 30.28 in 10.0 mi West 12.7 mph - N/A   Clear
11:53 PM 33.1 °F 24.4 °F 30.9 °F 92% 30.28 in 10.0 mi West 11.5 mph - N/A   Clear